CW5404 Weather Reports


time (UTC)temp
C
wind
direction
speed
KPH
gust
KPH
rain 1hr
cm
rain 24hr
cm
rain mn
cm
humidity
%
barometer
mb
20260503192416 25 0.0 8.0 0.00 0.00 0.00 53 1010.1
20260503191916 25 3.2 8.0 0.00 0.00 0.00 52 1010.0
20260503191416 25 0.0 8.0 0.00 0.00 0.00 52 1010.0
20260503190916 25 6.4 8.0 0.00 0.00 0.00 52 1010.3
20260503190415 25 0.0 6.4 0.00 0.00 0.00 51 1010.3
20260503185915 25 0.0 8.0 0.00 0.00 0.00 52 1010.3
20260503185415 25 0.0 8.0 0.00 0.00 0.00 51 1010.5
20260503184915 25 0.0 8.0 0.00 0.00 0.00 54 1010.5
20260503184415 25 4.8 8.0 0.00 0.00 0.00 50 1010.5
20260503183915 25 0.0 4.8 0.00 0.00 0.00 50 1010.5
20260503183415 25 0.0 1.6 0.00 0.00 0.00 48 1010.5
20260503182915 25 0.0 4.8 0.00 0.00 0.00 54 1010.5
20260503182415 24 0.0 4.8 0.00 0.00 0.00 55 1010.7
20260503181915 23 3.2 6.4 0.00 0.00 0.00 51 1010.7
20260503181415 23 0.0 8.0 0.00 0.00 0.00 51 1010.7
20260503180915 23 1.6 8.0 0.00 0.00 0.00 51 1010.8
20260503180415 23 4.8 6.4 0.00 0.00 0.00 52 1010.8
20260503175915 23 1.6 8.0 0.00 0.00 0.00 52 1010.8
20260503175415 23 0.0 8.0 0.00 0.00 0.00 52 1010.8
20260503174914 23 0.0 4.8 0.00 0.00 0.00 53 1010.8
20260503174414 23 0.0 6.4 0.00 0.00 0.00 56 1010.8
20260503173914 23 4.8 6.4 0.00 0.00 0.00 54 1010.9
20260503173414 23 1.6 4.8 0.00 0.00 0.00 56 1010.9
20260503172914 23 0.0 6.4 0.00 0.00 0.00 55 1010.9
20260503172414 23 1.6 6.4 0.00 0.00 0.00 55 1011.0
20260503171914 22 0.0 1.6 0.00 0.00 0.00 58 1011.0
20260503171414 22 0.0 0.0 0.00 0.00 0.00 56 1011.0
20260503170914 22 0.0 0.0 0.00 0.00 0.00 62 1010.9
20260503170414 22 0.0 0.0 0.00 0.00 0.00 62 1010.9
20260503150913 16 0.0 0.0 0.00 0.00 0.00 86 1011.3
20260503150413 16 0.0 0.0 0.00 0.00 0.00 88 1011.3
20260503131412 10 0.0 0.0 0.00 0.00 0.00 96 1010.9
20260503130912 10 0.0 0.0 0.00 0.00 0.00 96 1010.9
20260503130411 10 0.0 0.0 0.00 0.00 0.00 96 1010.9
20260503090409 12 0.0 0.0 0.00 0.00 0.00 90 1011.5
20260503081408 13 0.0 0.0 0.00 0.00 0.00 89 1011.5
20260503080908 13 0.0 0.0 0.00 0.00 0.00 89 1011.5
20260503080408 13 0.0 0.0 0.00 0.00 0.00 88 1011.5
20260503072908 13 0.0 0.0 0.00 0.00 0.00 87 1011.9
20260503072408 13 0.0 0.0 0.00 0.00 0.00 87 1011.9
20260503071907 13 0.0 0.0 0.00 0.00 0.00 86 1011.9
20260503071408 13 0.0 0.0 0.00 0.00 0.00 86 1011.9
20260503070407 14 0.0 0.0 0.00 0.00 0.00 85 1011.9
20260503054906 15 0.0 0.0 0.00 0.00 0.00 80 1011.7
20260503054407 16 0.0 0.0 0.00 0.00 0.00 80 1011.8
20260503053907 16 0.0 0.0 0.00 0.00 0.00 79 1011.9
20260503053406 16 0.0 0.0 0.00 0.00 0.00 79 1011.9
20260503052906 16 0.0 0.0 0.00 0.00 0.00 79 1011.9
20260503052407 16 0.0 0.0 0.00 0.00 0.00 79 1011.7
20260503051906 16 0.0 0.0 0.00 0.00 0.00 79 1011.7
20260503051406 16 0.0 0.0 0.00 0.00 0.00 78 1011.7
20260503050936 16 0.0 0.0 0.00 0.00 0.00 78 1011.7
20260503050406 16 0.0 0.0 0.00 0.00 0.00 78 1011.7
20260503045936 16 0.0 0.0 0.00 0.00 0.00 77 1011.7
20260503045406 16 0.0 0.0 0.00 0.00 0.00 77 1011.7
20260503044906 16 0.0 0.0 0.00 0.00 0.00 76 1011.7
20260503044406 16 0.0 0.0 0.00 0.00 0.00 76 1011.7
20260503043905 16 0.0 0.0 0.00 0.00 0.00 76 1011.6
20260503043405 16 0.0 0.0 0.00 0.00 0.00 75 1011.6
20260503042405 17 0.0 0.0 0.00 0.00 0.00 75 1011.5
20260503041936 17 0.0 0.0 0.00 0.00 0.00 74 1011.5
20260503041435 17 0.0 0.0 0.00 0.00 0.00 74 1011.5
20260503040906 17 0.0 0.0 0.00 0.00 0.00 73 1011.4
20260503040436 17 0.0 0.0 0.00 0.00 0.00 73 1011.4
20260503035905 17 0.0 0.0 0.00 0.00 0.00 72 1011.4
20260503035435 17 0.0 4.8 0.00 0.00 0.00 72 1011.2
20260503034905 17 0.0 4.8 0.00 0.00 0.00 72 1011.2
20260503034405 17 1.6 4.8 0.00 0.00 0.00 71 1011.2
20260503033905 17 3.2 4.8 0.00 0.00 0.00 70 1010.9
20260503033405 17 1.6 4.8 0.00 0.00 0.00 70 1010.9
20260503032935 17 0.0 0.0 0.00 0.00 0.00 70 1010.9
20260503032405 17 0.0 0.0 0.00 0.00 0.00 71 1010.4
20260503031935 17 0.0 0.0 0.00 0.00 0.00 70 1010.4
20260503031405 17 0.0 0.0 0.00 0.00 0.00 70 1010.4
20260503030935 17 0.0 0.0 0.00 0.00 0.00 70 1010.4
20260503030405 17 0.0 3.2 0.00 0.00 0.00 69 1010.4
20260503025935 17 0.0 3.2 0.00 0.00 0.00 69 1010.4
20260503025404 17 0.0 3.2 0.00 0.00 0.00 69 1010.6
20260503024905 18 0.0 3.2 0.00 0.00 0.00 69 1010.6
20260503024404 18 0.0 3.2 0.00 0.00 0.00 68 1010.6
20260503023904 18 1.6 1.6 0.00 0.00 0.00 69 1010.9
20260503023404 18 0.0 0.0 0.00 0.00 0.00 70 1010.9
20260503022904 18 0.0 0.0 0.00 0.00 0.00 70 1010.9
20260503022404 18 0.0 0.0 0.00 0.00 0.00 69 1011.4
20260503021904 18 0.0 0.0 0.00 0.00 0.00 69 1011.4
20260503021434 18 0.0 4.8 0.00 0.00 0.00 68 1011.4
20260503020904 18 0.0 6.4 0.00 0.00 0.00 69 1011.9
20260503020404 18 3.2 8.0 0.00 0.00 0.00 68 1011.9
20260503015434 18 3.2 9.7 0.00 0.00 0.00 67 1011.7
20260503014903 19 8.0 9.7 0.00 0.00 0.00 68 1011.7
20260503014403 19 4.8 11.3 0.00 0.00 0.00 67 1011.7
20260503013404 19 6.4 8.0 0.00 0.00 0.00 66 1011.3
20260503012904 20 3.2 8.0 0.00 0.00 0.00 65 1011.4
20260503012403 20 6.4 11.3 0.00 0.00 0.00 65 1011.2
20260503010904 20 6.4 8.0 0.00 0.00 0.00 64 1011.1
20260503010433 20 4.8 8.0 0.00 0.00 0.00 64 1011.1
20260503005933 20 3.2 4.8 0.00 0.00 0.00 65 1011.1
20260503005403 20 0.0 4.8 0.00 0.00 0.00 63 1011.1
20260503004903 20 3.2 6.4 0.00 0.00 0.00 62 1011.1
20260503004403 20 4.8 11.3 0.00 0.00 0.00 61 1011.1
20260503003903 20 1.6 11.3 0.00 0.00 0.00 60 1011.0
20260503003403 20 3.2 8.0 0.00 0.00 0.00 61 1011.0
20260503002903 20 3.2 8.0 0.00 0.00 0.00 59 1011.0
20260503002403 20 0.0 8.0 0.00 0.00 0.00 60 1010.9
20260503001933 20 1.6 8.0 0.00 0.00 0.00 59 1010.9
20260503001433 20 8.0 8.0 0.00 0.00 0.00 61 1010.9
20260503000402 20 0.0 9.7 0.00 0.00 0.00 63 1010.9
20260502235432 20 1.6 11.3 0.00 0.00 0.00 62 1011.0
20260502234902 20 1.6 11.3 0.00 0.00 0.00 62 1011.0
20260502234432 20 6.4 9.7 0.00 0.00 0.00 65 1011.0
20260502233902 20 4.8 9.7 0.00 0.00 0.00 63 1011.3
20260502233402 20 4.8 8.0 0.00 0.00 0.00 63 1011.3
20260502232902 20 3.2 8.0 0.00 0.00 0.00 64 1011.3
20260502232432 20 3.2 6.4 0.00 0.00 0.00 64 1011.5
20260502231402 19 6.4 8.0 0.00 0.00 0.00 63 1011.5
20260502230902 19 4.8 9.7 0.00 0.00 0.00 64 1011.9
20260502230432 19 3.2 11.3 0.00 0.00 0.00 63 1011.9
20260502225932 20 4.8 11.3 0.00 0.00 0.00 63 1011.9
20260502224931 20 1.6 6.4 0.00 0.00 0.00 65 1012.0
20260502224430 20 1.6 6.4 0.00 0.00 0.00 63 1012.0
20260502223901 20 3.2 12.9 0.00 0.00 0.00 63 1012.4
20260502223430 20 0.0 12.9 0.00 0.00 0.00 66 1012.4
20260502222930 20 4.8 9.7 0.00 0.00 0.00 63 1012.4
20260502222431 20 1.6 6.4 0.00 0.00 0.00 60 1012.6
20260502221930 20 6.4 6.4 0.00 0.00 0.00 66 1012.6
20260502221430 19 3.2 8.0 0.00 0.00 0.00 65 1012.6
20260502220930 19 1.6 8.0 0.00 0.00 0.00 62 1012.6
20260502215930 18 0.0 6.4 0.00 0.00 0.00 65 1012.6
20260502215430 18 0.0 8.0 0.00 0.00 0.00 66 1012.9
20260502214929 18 3.2 8.0 0.00 0.00 0.00 65 1012.9
20260502214430 18 3.2 8.0 0.00 0.00 0.00 67 1012.9
20260502212930 17 0.0 11.3 0.00 0.00 0.00 66 1012.9
20260502212429 17 3.2 9.7 0.00 0.00 0.00 67 1013.0
20260502211930 17 9.7 9.7 0.00 0.00 0.00 66 1013.0
20260502211429 17 3.2 11.3 0.00 0.00 0.00 66 1013.0
20260502210929 17 6.4 11.3 0.00 0.00 0.00 67 1013.3
20260502210429 17 1.6 11.3 0.00 0.00 0.00 68 1013.3
20260502205929 17 3.2 11.3 0.00 0.00 0.00 66 1013.3
20260502204929 17 4.8 8.0 0.00 0.00 0.00 68 1013.5
20260502204429 17 0.0 8.0 0.00 0.00 0.00 66 1013.4
20260502203929 16 4.8 9.7 0.00 0.00 0.00 68 1013.7
20260502203430 16 4.8 9.7 0.00 0.00 0.00 67 1013.7
20260502202929 16 3.2 11.3 0.00 0.00 0.00 68 1013.7
20260502202429 16 6.4 11.3 0.00 0.00 0.00 70 1013.9
20260502201358 16 6.4 9.7 0.00 0.00 0.00 68 1013.9
20260502200929 16 0.0 9.7 0.00 0.00 0.00 67 1014.1
20260502200429 16 0.0 9.7 0.00 0.00 0.00 66 1014.1
20260502195928 16 0.0 8.0 0.00 0.00 0.00 65 1014.1
20260502195428 16 1.6 8.0 0.00 0.00 0.00 65 1014.3
20260502194928 16 4.8 9.7 0.00 0.00 0.00 69 1014.3
20260502193428 15 3.2 9.7 0.00 0.00 0.00 70 1014.6
20260502192928 15 8.0 9.7 0.00 0.00 0.00 71 1014.6